Location: Newark
(42.8481°N, 0.4872°E)
Time: 17:40:27
(UTC+00:00)

Vanguard 1 - Pass Details

Date: 28 October 2020
Orbit: 650 x 3833 km, 34.2° (Epoch: 28 November)

Event Time Altitude Azimuth Distance (km) Brightness Sun altitude
Rises 16:22:27 0° 271° (W) 7,977 16.1 4.8°
Reaches altitude 10° 16:28:08 10° 269° (W) 6,898 15.9 3.9°
Maximum altitude 16:49:37 59° 198° (SSW) 3,277 13.0 0.2°
Drops below altitude 10° 17:02:49 10° 123° (ESE) 4,473 13.0 -2.1°
Sets 17:05:39 0° 119° (ESE) 5,135 13.3 -2.6°
